Flag for U.S.A. Weather past 2 weeks in New Orleans, Louisiana, U.S.A.

Now
77 °F

Clear.


Feels Like: 79 °F
Forecast: 69 / 89 °F
Wind: No wind

Location: Lakefront Airport

Current Time: Aug 30, 2015 at 5:20:25 AM

Latest Report: Aug 30, 2015 at 4:53 AM


Visibility: 10 mi

Pressure: 30.00 "Hg

Humidity: 74%

Dew point: 68 °F

Location of New OrleansLocation

Historic Weather in New Orleans — Graph

°F

New Orleans temperature yesterday

Maximum temperature yesterday: 88 °F (at 1:53 PM)
Minimum temperature yesterday: 76 °F (at 4:53 AM)
Average temperature yesterday: 81 °F

Past Weeks' High & Low Weather Summary

 TemperatureHumidityPressure
High92 °F (Aug 24, 2:53 PM)94% (Aug 17, 4:53 AM)30.06 "Hg (Aug 17, 4:53 AM)
Low74 °F (Aug 17, 3:53 AM)33% (Aug 25, 7:53 PM)29.87 "Hg (Aug 19, 4:53 PM)
Average82 °F70%29.97 "Hg
* Reported Aug 15 3:53 AM — Aug 30 3:53 AM, New Orleans, Weather by CustomWeather, © 2015

Note: Actual official high and low records may vary slightly from our data, if they occured in-between our weather recording intervals... More about our weather records

Advertising

New Orleans weather history for previous 24 hours

 ConditionsComfort  
Time TempWeatherWind HumidityBarometerVisibility
3:53 AM
Sun, Aug 30
77 °FClear.No wind74%29.99 "Hg10 mi
2:53 AM78 °FPassing clouds.No wind71%29.99 "Hg10 mi
1:53 AM77 °FPassing clouds.5 mph74%29.99 "Hg10 mi
12:53 AM78 °FClear.3 mph69%30.01 "Hg10 mi
11:53 PM
Sat, Aug 29
78 °FClear.5 mph69%30.01 "Hg10 mi
10:53 PM79 °FClear.5 mph69%30.01 "Hg10 mi
9:53 PM79 °FClear.6 mph69%30.01 "Hg10 mi
8:53 PM79 °FClear.8 mph65%29.99 "Hg10 mi
7:53 PM81 °FSunny.8 mph60%29.98 "Hg10 mi
6:53 PM84 °FBroken clouds.9 mph53%29.98 "Hg10 mi
5:53 PM85 °FPassing clouds.9 mph51%29.97 "Hg10 mi
4:53 PM85 °FScattered clouds.9 mph51%29.97 "Hg10 mi
3:53 PM87 °FPartly sunny.10 mph48%29.99 "Hg10 mi
2:53 PM86 °FMostly cloudy.10 mph51%30.01 "Hg10 mi
1:53 PM88 °FPartly sunny.6 mph46%30.03 "Hg10 mi
12:53 PM86 °FMostly cloudy.6 mph51%30.04 "Hg10 mi
11:53 AM83 °FMostly cloudy.5 mph57%30.06 "Hg10 mi
10:53 AM85 °FScattered clouds.10 mph53%30.06 "Hg10 mi
9:53 AM83 °FSunny.8 mph59%30.05 "Hg10 mi
8:53 AM82 °FPassing clouds.8 mph63%30.04 "Hg10 mi
7:53 AM78 °FPartly sunny.7 mph74%30.03 "Hg10 mi
6:53 AM76 °FPassing clouds.6 mph82%30.02 "Hg10 mi
5:53 AM76 °FPassing clouds.7 mph80%29.99 "Hg10 mi
Weather by CustomWeather, © 2015

See weather overviewHow to use our weather pages